When you browse on this site, cookies collect data to enhance your experience and personalize the content and advertising you see.
Visit our Privacy Policy to learn more. By continuing to use the site, you agree to this use of cookies and data.
  • In United Kingdom
  • List of Countries
  • For 7 days
  • Water Temperature
  • Weather Map
  • Weather Widgets
  • user-avatar
    Login

    Hourly Weather Munich

    Today, 7 December, Saturday

    Time Temperature Precipitation Wind Pressure Humidity
    00:00 +2°C° 0 mm 3 mps 715 mmHg 59%
    01:00 +2°C° 0 mm 3 mps 715 mmHg 58%
    02:00 +3°C° 0.2 mm 4 mps 715 mmHg 64%
    03:00 +3°C° 0.2 mm 5 mps 714 mmHg 71%
    04:00 +4°C° 0.2 mm 6 mps 714 mmHg 78%
    05:00 +4°C° 0.2 mm 6 mps 715 mmHg 80%
    06:00 +4°C° 0.2 mm 6 mps 715 mmHg 83%
    07:00 +5°C° 0 mm 5 mps 715 mmHg 84%
    08:00 +5°C° 0.2 mm 5 mps 715 mmHg 85%
    09:00 +5°C° 0.2 mm 5 mps 715 mmHg 86%
    10:00 +3°C° 0.2 mm 5 mps 716 mmHg 87%
    11:00 +5°C° 0 mm 5 mps 716 mmHg 85%
    12:00 +6°C° 0 mm 5 mps 716 mmHg 83%
    13:00 +6°C° 0 mm 5 mps 716 mmHg 81%
    14:00 +6°C° 0.1 mm 5 mps 716 mmHg 82%
    15:00 +6°C° 0.1 mm 4 mps 716 mmHg 84%
    16:00 +5°C° 0.1 mm 4 mps 716 mmHg 85%
    17:00 +5°C° 0 mm 4 mps 717 mmHg 86%
    18:00 +5°C° 0 mm 3 mps 717 mmHg 88%
    19:00 +4°C° 0 mm 3 mps 718 mmHg 89%
    20:00 +4°C° 0 mm 3 mps 718 mmHg 89%
    21:00 +4°C° 0 mm 3 mps 718 mmHg 89%
    22:00 +4°C° 0 mm 3 mps 718 mmHg 89%
    23:00 +4°C° 0 mm 3 mps 718 mmHg 89%

    Tomorrow, 8 December, Sunday

    Time Temperature Precipitation Wind Pressure Humidity
    00:00 +4°C° 0 mm 3 mps 718 mmHg 89%
    01:00 +4°C° 0 mm 3 mps 718 mmHg 89%
    02:00 +3°C° 0 mm 3 mps 717 mmHg 90%
    03:00 +4°C° 0 mm 2 mps 716 mmHg 91%
    04:00 +3°C° 0 mm 2 mps 715 mmHg 92%
    05:00 +3°C° 0 mm 2 mps 715 mmHg 90%
    06:00 +2°C° 0 mm 3 mps 715 mmHg 88%
    07:00 +1°C° 0 mm 3 mps 715 mmHg 86%
    08:00 +2°C° 0 mm 3 mps 715 mmHg 83%
    09:00 +3°C° 0 mm 4 mps 715 mmHg 80%
    10:00 +4°C° 0 mm 4 mps 714 mmHg 76%
    11:00 +5°C° 0 mm 4 mps 714 mmHg 73%
    12:00 +6°C° 0 mm 5 mps 713 mmHg 70%
    13:00 +7°C° 0 mm 5 mps 713 mmHg 67%
    14:00 +7°C° 0 mm 5 mps 712 mmHg 70%
    15:00 +6°C° 0 mm 4 mps 712 mmHg 72%
    16:00 +6°C° 0 mm 4 mps 712 mmHg 74%
    17:00 +6°C° 0.1 mm 4 mps 711 mmHg 73%
    18:00 +5°C° 0.1 mm 5 mps 711 mmHg 72%
    19:00 +5°C° 0.1 mm 5 mps 711 mmHg 71%
    20:00 +6°C° 0.1 mm 5 mps 711 mmHg 73%
    21:00 +6°C° 0.1 mm 5 mps 711 mmHg 74%
    22:00 +7°C° 0.1 mm 5 mps 710 mmHg 76%
    23:00 +7°C° 0 mm 6 mps 710 mmHg 76%

    Day after tomorrow, 9 December, Monday

    Time Temperature Precipitation Wind Pressure Humidity
    00:00 +7°C° 0 mm 6 mps 709 mmHg 76%
    01:00 +7°C° 0 mm 6 mps 709 mmHg 76%
    02:00 +6°C° 0.1 mm 5 mps 709 mmHg 76%
    03:00 +6°C° 0.1 mm 5 mps 708 mmHg 76%
    04:00 +5°C° 0.1 mm 5 mps 708 mmHg 76%
    05:00 +5°C° 0.4 mm 5 mps 708 mmHg 76%
    06:00 +3°C° 0.4 mm 5 mps 709 mmHg 76%
    07:00 +3°C° 0.4 mm 5 mps 709 mmHg 76%
    08:00 +3°C° 0 mm 6 mps 709 mmHg 74%
    09:00 +3°C° 0 mm 6 mps 709 mmHg 72%
    10:00 +4°C° 0 mm 7 mps 709 mmHg 70%
    11:00 +4°C° 0 mm 7 mps 708 mmHg 68%
    12:00 +5°C° 0 mm 8 mps 708 mmHg 66%
    13:00 +5°C° 0 mm 8 mps 707 mmHg 64%
    14:00 +4°C° 0 mm 8 mps 707 mmHg 69%
    15:00 +4°C° 0 mm 8 mps 707 mmHg 74%
    16:00 +3°C° 0 mm 7 mps 707 mmHg 79%
    17:00 +2°C° 0.3 mm 7 mps 708 mmHg 81%
    18:00 +2°C° 0.3 mm 7 mps 709 mmHg 83%
    19:00 0°C° 0.3 mm 8 mps 710 mmHg 84%
    20:00 0°C° 0.1 mm 8 mps 711 mmHg 83%
    21:00 0°C° 0.1 mm 8 mps 712 mmHg 81%
    22:00 -1°C° 0.1 mm 8 mps 713 mmHg 79%
    23:00 -1°C° 0.1 mm 8 mps 713 mmHg 84%

    10 December, Tuesday

    Time Temperature Precipitation Wind Pressure Humidity
    00:00 -1°C° 0.1 mm 8 mps 714 mmHg 89%
    01:00 -1°C° 0.1 mm 8 mps 715 mmHg 94%
    02:00 -1°C° 0.5 mm 7 mps 715 mmHg 93%
    03:00 -1°C° 0.5 mm 6 mps 716 mmHg 93%
    04:00 -1°C° 0.5 mm 6 mps 717 mmHg 92%
    05:00 -1°C° 0.2 mm 5 mps 718 mmHg 90%
    06:00 -1°C° 0.2 mm 5 mps 719 mmHg 87%
    07:00 -2°C° 0.2 mm 4 mps 720 mmHg 85%
    08:00 -2°C° 0 mm 5 mps 720 mmHg 83%
    09:00 -1°C° 0 mm 5 mps 721 mmHg 82%
    10:00 -1°C° 0 mm 5 mps 722 mmHg 80%
    11:00 -1°C° 0.1 mm 5 mps 722 mmHg 77%
    12:00 0°C° 0.1 mm 5 mps 722 mmHg 73%
    13:00 0°C° 0.1 mm 5 mps 722 mmHg 69%
    14:00 0°C° 0 mm 4 mps 722 mmHg 73%
    15:00 0°C° 0 mm 3 mps 722 mmHg 76%
    16:00 -1°C° 0 mm 2 mps 722 mmHg 80%
    17:00 +1°C° 0 mm 1 mps 722 mmHg 82%
    18:00 0°C° 0 mm 1 mps 721 mmHg 85%
    19:00 -1°C° 0 mm 1 mps 721 mmHg 87%
    20:00 -1°C° 0 mm 1 mps 721 mmHg 86%
    21:00 -1°C° 0 mm 1 mps 720 mmHg 86%
    22:00 -3°C° 0 mm 2 mps 720 mmHg 85%
    23:00 -3°C° 0 mm 2 mps 719 mmHg 83%

    11 December, Wednesday

    Time Temperature Precipitation Wind Pressure Humidity
    00:00 -4°C° 0 mm 2 mps 719 mmHg 81%
    01:00 -4°C° 0 mm 2 mps 718 mmHg 79%
    02:00 -4°C° 0 mm 2 mps 717 mmHg 76%
    03:00 -4°C° 0 mm 2 mps 717 mmHg 72%
    04:00 -4°C° 0 mm 2 mps 716 mmHg 68%
    05:00 -2°C° 0 mm 1 mps 716 mmHg 65%
    06:00 -2°C° 0 mm 1 mps 715 mmHg 62%
    07:00 -2°C° 0 mm 1 mps 715 mmHg 60%
    08:00 0°C° 0 mm 1 mps 715 mmHg 56%
    09:00 +1°C° 0 mm 1 mps 715 mmHg 53%
    10:00 +2°C° 0 mm 1 mps 714 mmHg 50%
    11:00 +3°C° 0 mm 1 mps 714 mmHg 49%
    12:00 +4°C° 0 mm 1 mps 713 mmHg 48%
    13:00 +4°C° 0 mm 0 mps 713 mmHg 48%
    14:00 +4°C° 0.1 mm 1 mps 713 mmHg 54%
    15:00 +4°C° 0.1 mm 1 mps 713 mmHg 60%
    16:00 +3°C° 0.1 mm 1 mps 713 mmHg 66%
    17:00 +3°C° 0.6 mm 2 mps 713 mmHg 75%
    18:00 +2°C° 0.6 mm 3 mps 713 mmHg 84%
    19:00 +2°C° 0.6 mm 3 mps 713 mmHg 92%
    20:00 +2°C° 0.6 mm 3 mps 713 mmHg 93%
    21:00 +2°C° 0.6 mm 3 mps 713 mmHg 94%
    22:00 +2°C° 0.6 mm 3 mps 713 mmHg 95%
    23:00 +2°C° 0.1 mm 3 mps 712 mmHg 93%

    12 December, Thursday

    Time Temperature Precipitation Wind Pressure Humidity
    00:00 +1°C° 0.1 mm 3 mps 712 mmHg 92%
    01:00 +2°C° 0.1 mm 2 mps 712 mmHg 90%
    02:00 +1°C° 0 mm 2 mps 711 mmHg 90%
    03:00 +1°C° 0 mm 2 mps 711 mmHg 89%
    04:00 +1°C° 0 mm 2 mps 711 mmHg 89%
    05:00 0°C° 0.1 mm 3 mps 711 mmHg 91%
    06:00 -1°C° 0.1 mm 4 mps 711 mmHg 93%
    07:00 -1°C° 0.1 mm 5 mps 711 mmHg 95%
    08:00 -1°C° 0.1 mm 5 mps 712 mmHg 93%
    09:00 -1°C° 0.1 mm 5 mps 712 mmHg 91%
    10:00 0°C° 0.1 mm 5 mps 713 mmHg 89%
    11:00 0°C° 0.1 mm 5 mps 713 mmHg 87%
    12:00 0°C° 0.1 mm 5 mps 712 mmHg 85%
    13:00 0°C° 0.1 mm 5 mps 712 mmHg 83%
    14:00 0°C° 0.1 mm 5 mps 712 mmHg 83%
    15:00 -1°C° 0.1 mm 4 mps 713 mmHg 83%
    16:00 0°C° 0.1 mm 3 mps 713 mmHg 83%
    17:00 -1°C° 0 mm 3 mps 713 mmHg 84%
    18:00 -1°C° 0 mm 3 mps 713 mmHg 85%
    19:00 -2°C° 0 mm 3 mps 713 mmHg 86%
    20:00 -2°C° 0 mm 3 mps 712 mmHg 84%
    21:00 -1°C° 0 mm 2 mps 712 mmHg 83%
    22:00 -1°C° 0 mm 2 mps 711 mmHg 81%
    23:00 -1°C° 0 mm 2 mps 711 mmHg 77%
    Show more